Voltar ao catálogo

STARLINK-11409

AtivoComunicaçõesVLEO
NORAD 63061·PAYLOAD·🇺🇸 United States

Lançado Feb 21, 2025 de Cape Canaveral Space Force Station

Loading…

Próximas Passagens (próximas 24 horas)

TLE

AtualizadoSource: CelesTrak SupGP

Época: Sep 15, 2026, 03:53 UTC

1 63061C 25035K   26258.16229167  .00065040  00000+0  50538-3 0  2584
2 63061  42.9999 313.4283 0001468 264.6724 256.4326 15.70796478    17

Acompanhe STARLINK-11409 em tempo real com AllMySat

Download on the App Store